Time,TemperatureF,DewpointF,PressureIn,WindDirection,WindDirectionDegrees,WindSpeedMPH,WindSpeedGustMPH,Humidity,HourlyPrecipIn,Conditions,Clouds,dailyrainin,SoftwareType,DateUTC
2013-06-24 00:01:00,79.2,75.0,30.06,SSE,150,0.0,1.0,87,0.00,,---,0.00,VWS V14.01,2013-06-24 05:01:00,
2013-06-24 00:06:00,79.1,75.2,30.06,SSE,150,0.0,1.0,88,0.00,,---,0.00,VWS V14.01,2013-06-24 05:06:00,
2013-06-24 00:11:00,79.1,75.2,30.06,SSE,150,0.0,1.0,88,0.00,,---,0.00,VWS V14.01,2013-06-24 05:11:00,
2013-06-24 00:16:00,79.1,75.2,30.06,SSE,150,0.0,1.0,88,0.00,,---,0.00,VWS V14.01,2013-06-24 05:16:00,
2013-06-24 00:21:00,79.0,75.2,30.06,SSE,150,0.0,1.0,88,0.00,,---,0.00,VWS V14.01,2013-06-24 05:21:00,
2013-06-24 00:26:00,79.0,75.5,30.06,SSE,150,0.0,1.0,89,0.00,,---,0.00,VWS V14.01,2013-06-24 05:26:00,
2013-06-24 00:31:00,78.9,75.4,30.06,SSE,150,0.0,0.0,89,0.00,,---,0.00,VWS V14.01,2013-06-24 05:31:00,
2013-06-24 00:36:00,78.9,75.4,30.06,SSE,150,0.0,0.0,89,0.00,,---,0.00,VWS V14.01,2013-06-24 05:36:00,
2013-06-24 00:41:00,78.9,75.4,30.06,SSE,150,0.0,0.0,89,0.00,,---,0.00,VWS V14.01,2013-06-24 05:41:00,
2013-06-24 00:46:00,78.8,75.3,30.06,SSE,150,0.0,0.0,89,0.00,,---,0.00,VWS V14.01,2013-06-24 05:46:00,
2013-06-24 00:51:00,78.8,75.3,30.06,SSE,150,0.0,0.0,89,0.00,,---,0.00,VWS V14.01,2013-06-24 05:51:00,
2013-06-24 00:56:00,78.8,75.3,30.06,SSE,150,0.0,0.0,89,0.00,,---,0.00,VWS V14.01,2013-06-24 05:56:00,
2013-06-24 01:01:00,78.9,75.4,30.06,SSE,150,0.0,0.0,89,0.00,,---,0.00,VWS V14.01,2013-06-24 06:01:00,
2013-06-24 01:06:00,79.0,75.5,30.06,SSE,150,0.0,0.0,89,0.00,,---,0.00,VWS V14.01,2013-06-24 06:06:00,
2013-06-24 01:11:00,79.2,75.7,30.06,SSE,150,0.0,0.0,89,0.00,,---,0.00,VWS V14.01,2013-06-24 06:11:00,
2013-06-24 01:17:00,79.2,75.7,30.06,SSE,150,0.0,0.0,89,0.00,,---,0.00,VWS V14.01,2013-06-24 06:17:00,
2013-06-24 01:22:00,79.2,75.7,30.06,SSE,150,0.0,0.0,89,0.00,,---,0.00,VWS V14.01,2013-06-24 06:22:00,
2013-06-24 01:27:00,79.2,75.7,30.06,SSE,150,0.0,0.0,89,0.00,,---,0.00,VWS V14.01,2013-06-24 06:27:00,
2013-06-24 01:32:00,79.2,75.7,30.06,SSE,150,0.0,0.0,89,0.00,,---,0.00,VWS V14.01,2013-06-24 06:32:00,
2013-06-24 01:37:00,79.2,75.7,30.06,SSE,150,0.0,0.0,89,0.00,,---,0.00,VWS V14.01,2013-06-24 06:37:00,
2013-06-24 01:42:00,79.2,75.7,30.06,SSE,150,0.0,0.0,89,0.00,,---,0.00,VWS V14.01,2013-06-24 06:42:00,
2013-06-24 01:47:00,79.2,75.7,30.06,SSE,150,0.0,0.0,89,0.00,,---,0.00,VWS V14.01,2013-06-24 06:47:00,
2013-06-24 01:52:00,79.1,75.6,30.06,SSE,150,0.0,0.0,89,0.00,,---,0.00,VWS V14.01,2013-06-24 06:52:00,
2013-06-24 01:57:00,79.1,75.6,30.06,SSE,150,0.0,0.0,89,0.00,,---,0.00,VWS V14.01,2013-06-24 06:57:00,
2013-06-24 02:02:00,79.1,75.6,30.06,SSE,150,0.0,0.0,89,0.00,,---,0.00,VWS V14.01,2013-06-24 07:02:00,
2013-06-24 02:07:00,79.0,75.5,30.06,SSE,150,0.0,0.0,89,0.00,,---,0.00,VWS V14.01,2013-06-24 07:07:00,
2013-06-24 02:12:00,78.9,75.4,30.06,SSE,150,0.0,0.0,89,0.00,,---,0.00,VWS V14.01,2013-06-24 07:12:00,
2013-06-24 02:17:00,78.9,75.7,30.06,SSE,150,0.0,0.0,90,0.00,,---,0.00,VWS V14.01,2013-06-24 07:17:00,
2013-06-24 02:22:00,78.9,75.7,30.06,SSE,150,0.0,0.0,90,0.00,,---,0.00,VWS V14.01,2013-06-24 07:22:00,
2013-06-24 02:27:00,78.9,75.7,30.06,SSE,150,0.0,0.0,90,0.00,,---,0.00,VWS V14.01,2013-06-24 07:27:00,
2013-06-24 02:32:00,78.9,75.7,30.06,SSE,150,0.0,0.0,90,0.00,,---,0.00,VWS V14.01,2013-06-24 07:32:00,
2013-06-24 02:37:00,78.9,75.7,30.06,SSE,150,0.0,0.0,90,0.00,,---,0.00,VWS V14.01,2013-06-24 07:37:00,
2013-06-24 02:42:00,78.9,75.7,30.06,SSE,150,0.0,0.0,90,0.00,,---,0.00,VWS V14.01,2013-06-24 07:42:00,
2013-06-24 02:47:00,78.9,75.7,30.06,SSE,150,0.0,0.0,90,0.00,,---,0.00,VWS V14.01,2013-06-24 07:47:00,
2013-06-24 02:52:00,78.8,75.6,30.06,SSE,150,0.0,0.0,90,0.00,,---,0.00,VWS V14.01,2013-06-24 07:52:00,
2013-06-24 02:58:00,78.8,75.6,30.06,SSE,150,0.0,0.0,90,0.00,,---,0.00,VWS V14.01,2013-06-24 07:58:00,
2013-06-24 03:03:00,78.8,75.6,30.06,SSE,150,0.0,0.0,90,0.00,,---,0.00,VWS V14.01,2013-06-24 08:03:00,
2013-06-24 03:08:00,78.7,75.5,30.07,SSE,150,0.0,0.0,90,0.00,,---,0.00,VWS V14.01,2013-06-24 08:08:00,
2013-06-24 03:13:00,78.7,75.5,30.07,SSE,150,0.0,0.0,90,0.00,,---,0.00,VWS V14.01,2013-06-24 08:13:00,
2013-06-24 03:18:00,78.7,75.5,30.07,SSE,150,0.0,0.0,90,0.00,,---,0.00,VWS V14.01,2013-06-24 08:18:00,
2013-06-24 03:23:00,78.6,75.4,30.07,SSE,150,0.0,0.0,90,0.00,,---,0.00,VWS V14.01,2013-06-24 08:23:00,
2013-06-24 03:28:00,78.5,75.7,30.07,SSE,150,0.0,0.0,91,0.00,,---,0.00,VWS V14.01,2013-06-24 08:28:00,
2013-06-24 03:33:00,78.5,75.7,30.07,SSE,150,0.0,0.0,91,0.00,,---,0.00,VWS V14.01,2013-06-24 08:33:00,
2013-06-24 03:38:00,78.5,75.7,30.07,SSE,150,0.0,0.0,91,0.00,,---,0.00,VWS V14.01,2013-06-24 08:38:00,
2013-06-24 03:43:00,78.5,75.7,30.07,SSE,150,0.0,0.0,91,0.00,,---,0.00,VWS V14.01,2013-06-24 08:43:00,
2013-06-24 03:48:00,78.5,75.7,30.07,SSE,150,0.0,0.0,91,0.00,,---,0.00,VWS V14.01,2013-06-24 08:48:00,
2013-06-24 03:53:00,78.5,75.7,30.07,SSE,150,0.0,0.0,91,0.00,,---,0.00,VWS V14.01,2013-06-24 08:53:00,
2013-06-24 03:58:00,78.5,75.7,30.07,SSE,150,0.0,0.0,91,0.00,,---,0.00,VWS V14.01,2013-06-24 08:58:00,
2013-06-24 04:03:00,78.5,75.7,30.07,SSE,150,0.0,0.0,91,0.00,,---,0.00,VWS V14.01,2013-06-24 09:03:00,
2013-06-24 04:08:00,78.6,75.8,30.08,SSE,150,0.0,0.0,91,0.00,,---,0.00,VWS V14.01,2013-06-24 09:08:00,
2013-06-24 04:13:00,78.7,75.9,30.07,SSE,150,0.0,0.0,91,0.00,,---,0.00,VWS V14.01,2013-06-24 09:13:00,
2013-06-24 04:18:00,78.9,76.1,30.08,SSE,150,0.0,1.0,91,0.00,,---,0.00,VWS V14.01,2013-06-24 09:18:00,
2013-06-24 04:23:00,79.0,76.2,30.09,SSE,162,4.0,9.0,91,0.00,,---,0.00,VWS V14.01,2013-06-24 09:23:00,
2013-06-24 04:28:00,78.7,75.2,30.09,SSE,167,5.0,8.0,89,0.00,,---,0.00,VWS V14.01,2013-06-24 09:28:00,
2013-06-24 04:34:00,78.3,74.5,30.08,SSE,161,6.0,11.0,88,0.00,,---,0.00,VWS V14.01,2013-06-24 09:34:00,
2013-06-24 04:39:00,77.9,73.7,30.08,South,174,7.0,11.0,87,0.00,,---,0.00,VWS V14.01,2013-06-24 09:39:00,
2013-06-24 04:44:00,77.7,73.2,30.08,SSE,164,5.0,11.0,86,0.00,,---,0.00,VWS V14.01,2013-06-24 09:44:00,
2013-06-24 04:49:00,77.4,73.9,30.08,SSE,153,0.0,11.0,89,0.00,,---,0.00,VWS V14.01,2013-06-24 09:49:00,
2013-06-24 04:55:00,77.4,74.2,30.08,SE,136,0.0,11.0,90,0.00,,---,0.00,VWS V14.01,2013-06-24 09:55:00,
2013-06-24 04:59:00,77.5,74.3,30.08,SE,136,0.0,1.0,90,0.00,,---,0.00,VWS V14.01,2013-06-24 09:59:00,
2013-06-24 05:04:00,77.6,74.4,30.08,SE,135,0.0,1.0,90,0.00,,---,0.00,VWS V14.01,2013-06-24 10:04:00,
2013-06-24 05:09:00,77.8,74.6,30.08,SE,135,0.0,1.0,90,0.00,,---,0.00,VWS V14.01,2013-06-24 10:09:00,
2013-06-24 05:15:00,77.8,74.6,30.08,SE,135,0.0,1.0,90,0.00,,---,0.00,VWS V14.01,2013-06-24 10:15:00,
2013-06-24 05:20:00,77.8,75.0,30.08,SE,136,0.0,1.0,91,0.00,,---,0.00,VWS V14.01,2013-06-24 10:20:00,
2013-06-24 05:25:00,77.9,75.1,30.09,SE,135,0.0,1.0,91,0.00,,---,0.00,VWS V14.01,2013-06-24 10:25:00,
2013-06-24 05:30:00,77.9,75.4,30.08,SE,136,0.0,0.0,92,0.00,,---,0.00,VWS V14.01,2013-06-24 10:30:00,
2013-06-24 05:35:00,77.8,75.3,30.09,SE,136,0.0,0.0,92,0.00,,---,0.00,VWS V14.01,2013-06-24 10:35:00,
2013-06-24 05:40:00,77.6,75.1,30.10,SE,136,0.0,0.0,92,0.00,,---,0.00,VWS V14.01,2013-06-24 10:40:00,
2013-06-24 05:45:00,77.6,75.4,30.10,SE,136,0.0,0.0,93,0.00,,---,0.00,VWS V14.01,2013-06-24 10:45:00,
2013-06-24 05:51:00,77.6,75.4,30.09,SE,136,0.0,0.0,93,0.00,,---,0.00,VWS V14.01,2013-06-24 10:51:00,
2013-06-24 05:56:00,77.5,75.3,30.10,SE,135,0.0,0.0,93,0.00,,---,0.00,VWS V14.01,2013-06-24 10:56:00,
2013-06-24 06:01:00,77.4,75.2,30.10,SE,135,0.0,0.0,93,0.00,,---,0.00,VWS V14.01,2013-06-24 11:01:00,
2013-06-24 06:06:00,77.4,75.2,30.10,SE,135,0.0,0.0,93,0.00,,---,0.00,VWS V14.01,2013-06-24 11:06:00,
2013-06-24 06:11:00,77.4,75.2,30.10,SE,135,0.0,0.0,93,0.00,,---,0.00,VWS V14.01,2013-06-24 11:11:00,
2013-06-24 06:16:00,77.4,75.2,30.10,SW,218,0.0,4.0,93,0.00,,---,0.00,VWS V14.01,2013-06-24 11:16:00,
2013-06-24 06:21:00,77.4,75.2,30.10,SW,219,0.0,4.0,93,0.00,,---,0.00,VWS V14.01,2013-06-24 11:21:00,
2013-06-24 06:26:00,77.6,75.4,30.10,SW,219,0.0,4.0,93,0.00,,---,0.00,VWS V14.01,2013-06-24 11:26:00,
2013-06-24 06:31:00,77.9,75.4,30.10,SW,219,0.0,1.0,92,0.00,,---,0.00,VWS V14.01,2013-06-24 11:31:00,
2013-06-24 06:36:00,78.1,75.6,30.10,SW,218,0.0,1.0,92,0.00,,---,0.00,VWS V14.01,2013-06-24 11:36:00,
2013-06-24 06:41:00,78.3,75.8,30.10,SW,219,0.0,1.0,92,0.00,,---,0.00,VWS V14.01,2013-06-24 11:41:00,
2013-06-24 06:46:00,78.5,75.7,30.10,SW,219,0.0,1.0,91,0.00,,---,0.00,VWS V14.01,2013-06-24 11:46:00,
2013-06-24 06:51:00,78.7,75.9,30.10,SW,219,0.0,1.0,91,0.00,,---,0.00,VWS V14.01,2013-06-24 11:51:00,
2013-06-24 06:56:00,78.9,76.1,30.10,SW,219,0.0,1.0,91,0.00,,---,0.00,VWS V14.01,2013-06-24 11:56:00,
2013-06-24 07:01:00,79.2,76.0,30.10,SW,219,0.0,0.0,90,0.00,,---,0.00,VWS V14.01,2013-06-24 12:01:00,
2013-06-24 07:07:00,79.3,76.1,30.10,SW,218,0.0,0.0,90,0.00,,---,0.00,VWS V14.01,2013-06-24 12:07:00,
2013-06-24 07:12:00,79.5,76.3,30.10,SW,218,0.0,0.0,90,0.00,,---,0.00,VWS V14.01,2013-06-24 12:12:00,
2013-06-24 07:17:00,79.7,76.5,30.10,SW,218,0.0,0.0,90,0.00,,---,0.00,VWS V14.01,2013-06-24 12:17:00,
2013-06-24 07:22:00,80.0,76.8,30.10,SW,218,0.0,0.0,90,0.00,,---,0.00,VWS V14.01,2013-06-24 12:22:00,
2013-06-24 07:27:00,80.4,76.9,30.11,SW,218,0.0,0.0,89,0.00,,---,0.00,VWS V14.01,2013-06-24 12:27:00,
2013-06-24 07:32:00,80.7,76.8,30.11,SW,218,0.0,0.0,88,0.00,,---,0.00,VWS V14.01,2013-06-24 12:32:00,
2013-06-24 07:37:00,81.0,77.1,30.11,SW,218,0.0,0.0,88,0.00,,---,0.00,VWS V14.01,2013-06-24 12:37:00,
2013-06-24 07:42:00,81.5,77.6,30.11,SW,218,0.0,0.0,88,0.00,,---,0.00,VWS V14.01,2013-06-24 12:42:00,
2013-06-24 07:48:00,81.8,77.2,30.11,SW,218,0.0,0.0,86,0.00,,---,0.00,VWS V14.01,2013-06-24 12:48:00,
2013-06-24 07:53:00,82.2,77.6,30.11,SW,218,0.0,0.0,86,0.00,,---,0.00,VWS V14.01,2013-06-24 12:53:00,
2013-06-24 07:58:00,82.5,77.9,30.12,SW,218,0.0,0.0,86,0.00,,---,0.00,VWS V14.01,2013-06-24 12:58:00,
2013-06-24 08:03:00,82.8,77.8,30.12,SW,217,0.0,0.0,85,0.00,,---,0.00,VWS V14.01,2013-06-24 13:03:00,
2013-06-24 08:08:00,83.0,78.0,30.12,SW,217,0.0,0.0,85,0.00,,---,0.00,VWS V14.01,2013-06-24 13:08:00,
2013-06-24 08:14:00,83.1,77.8,30.12,SSW,205,0.0,1.0,84,0.00,,---,0.00,VWS V14.01,2013-06-24 13:14:00,
2013-06-24 08:19:00,83.3,78.0,30.12,SSW,195,0.0,1.0,84,0.00,,---,0.00,VWS V14.01,2013-06-24 13:19:00,
2013-06-24 08:24:00,83.5,77.8,30.12,SW,219,0.0,6.0,83,0.00,,---,0.00,VWS V14.01,2013-06-24 13:24:00,
2013-06-24 08:29:00,83.7,78.0,30.12,SSW,200,0.0,0.0,83,0.00,,---,0.00,VWS V14.01,2013-06-24 13:29:00,
2013-06-24 08:34:00,83.9,78.2,30.12,SSE,166,0.0,5.0,83,0.00,,---,0.00,VWS V14.01,2013-06-24 13:34:00,
2013-06-24 08:40:00,84.2,77.7,30.12,SSE,158,0.0,7.0,81,0.00,,---,0.00,VWS V14.01,2013-06-24 13:40:00,
2013-06-24 08:45:00,84.4,78.3,30.12,SSE,158,2.0,7.0,82,0.00,,---,0.00,VWS V14.01,2013-06-24 13:45:00,
2013-06-24 08:50:00,84.7,77.8,30.12,SW,217,4.0,7.0,80,0.00,,---,0.00,VWS V14.01,2013-06-24 13:50:00,
2013-06-24 08:55:00,84.8,77.9,30.12,South,181,2.0,7.0,80,0.00,,---,0.00,VWS V14.01,2013-06-24 13:55:00,
2013-06-24 09:00:00,85.1,78.2,30.12,SSE,164,6.0,7.0,80,0.00,,---,0.00,VWS V14.01,2013-06-24 14:00:00,
2013-06-24 09:05:00,85.2,77.9,30.13,South,186,3.0,8.0,79,0.00,,---,0.00,VWS V14.01,2013-06-24 14:05:00,
2013-06-24 09:10:00,85.4,78.5,30.13,South,171,9.0,9.0,80,0.00,,---,0.00,VWS V14.01,2013-06-24 14:10:00,
2013-06-24 09:15:00,85.7,78.4,30.13,South,171,4.0,9.0,79,0.00,,---,0.00,VWS V14.01,2013-06-24 14:15:00,
2013-06-24 09:21:00,85.9,78.2,30.12,South,176,9.0,9.0,78,0.00,,---,0.00,VWS V14.01,2013-06-24 14:21:00,
2013-06-24 09:26:00,86.0,77.2,30.12,SW,228,4.0,9.0,75,0.00,,---,0.00,VWS V14.01,2013-06-24 14:26:00,
2013-06-24 09:31:00,86.0,77.6,30.12,SSW,201,0.0,10.0,76,0.00,,---,0.00,VWS V14.01,2013-06-24 14:31:00,
2013-06-24 09:36:00,86.2,77.3,30.12,South,175,5.0,10.0,75,0.00,,---,0.00,VWS V14.01,2013-06-24 14:36:00,
2013-06-24 09:41:00,86.4,77.9,30.12,South,178,8.0,10.0,76,0.00,,---,0.00,VWS V14.01,2013-06-24 14:41:00,
2013-06-24 09:46:00,86.2,77.8,30.12,South,178,5.0,10.0,76,0.00,,---,0.00,VWS V14.01,2013-06-24 14:46:00,
2013-06-24 09:51:00,86.4,77.5,30.12,SSW,206,5.0,10.0,75,0.00,,---,0.00,VWS V14.01,2013-06-24 14:51:00,
2013-06-24 09:56:00,86.4,77.1,30.12,SSE,168,4.0,10.0,74,0.00,,---,0.00,VWS V14.01,2013-06-24 14:56:00,
2013-06-24 10:01:00,86.6,77.7,30.12,SE,128,5.0,12.0,75,0.00,,---,0.00,VWS V14.01,2013-06-24 15:01:00,
2013-06-24 10:06:00,86.6,76.5,30.12,SSW,212,7.0,12.0,72,0.00,,---,0.00,VWS V14.01,2013-06-24 15:06:00,
2013-06-24 10:11:00,86.8,76.7,30.12,SSE,152,5.0,12.0,72,0.00,,---,0.00,VWS V14.01,2013-06-24 15:11:00,
2013-06-24 10:16:00,87.0,76.0,30.12,South,182,5.0,12.0,70,0.00,,---,0.00,VWS V14.01,2013-06-24 15:16:00,
2013-06-24 10:21:00,87.1,76.1,30.13,ESE,119,6.0,12.0,70,0.00,,---,0.00,VWS V14.01,2013-06-24 15:21:00,
2013-06-24 10:26:00,87.2,74.9,30.13,South,181,4.0,12.0,67,0.00,,---,0.00,VWS V14.01,2013-06-24 15:26:00,
2013-06-24 10:31:00,87.5,75.6,30.13,South,178,6.0,7.0,68,0.00,,---,0.00,VWS V14.01,2013-06-24 15:31:00,
2013-06-24 10:36:00,87.8,73.6,30.13,South,183,5.0,10.0,63,0.00,,---,0.00,VWS V14.01,2013-06-24 15:36:00,
2013-06-24 10:41:00,88.0,75.2,30.13,SE,124,2.0,10.0,66,0.00,,---,0.00,VWS V14.01,2013-06-24 15:41:00,
2013-06-24 10:46:00,88.1,72.5,30.13,South,191,2.0,11.0,60,0.00,,---,0.00,VWS V14.01,2013-06-24 15:46:00,
2013-06-24 10:51:00,88.1,73.9,30.13,SSW,205,4.0,11.0,63,0.00,,---,0.00,VWS V14.01,2013-06-24 15:51:00,
2013-06-24 10:57:00,88.4,74.2,30.13,SSE,168,1.0,4.0,63,0.00,,---,0.00,VWS V14.01,2013-06-24 15:57:00,
2013-06-24 11:02:00,88.4,75.1,30.13,SSE,157,0.0,7.0,65,0.00,,---,0.00,VWS V14.01,2013-06-24 16:02:00,
2013-06-24 11:07:00,88.5,75.2,30.13,ESE,113,2.0,7.0,65,0.00,,---,0.00,VWS V14.01,2013-06-24 16:07:00,
2013-06-24 11:12:00,88.2,73.1,30.13,ESE,102,11.0,13.0,61,0.00,,---,0.00,VWS V14.01,2013-06-24 16:12:00,
2013-06-24 11:17:00,88.1,73.0,30.13,ENE,67,4.0,13.0,61,0.00,,---,0.00,VWS V14.01,2013-06-24 16:17:00,
2013-06-24 11:22:00,88.3,74.1,30.13,SSE,159,2.0,13.0,63,0.00,,---,0.00,VWS V14.01,2013-06-24 16:22:00,
2013-06-24 11:27:00,88.4,72.8,30.13,SSE,159,2.0,2.0,60,0.00,,---,0.00,VWS V14.01,2013-06-24 16:27:00,
2013-06-24 11:32:00,88.4,73.2,30.13,SSE,162,5.0,10.0,61,0.00,,---,0.00,VWS V14.01,2013-06-24 16:32:00,
2013-06-24 11:37:00,88.4,74.2,30.13,SSW,202,4.0,12.0,63,0.00,,---,0.00,VWS V14.01,2013-06-24 16:37:00,
2013-06-24 11:42:00,88.3,73.2,30.13,ESE,113,1.0,12.0,61,0.00,,---,0.00,VWS V14.01,2013-06-24 16:42:00,
2013-06-24 11:47:00,88.6,72.9,30.13,SE,136,4.0,12.0,60,0.00,,---,0.00,VWS V14.01,2013-06-24 16:47:00,
2013-06-24 11:52:00,88.9,72.7,30.13,SSE,167,5.0,12.0,59,0.00,,---,0.00,VWS V14.01,2013-06-24 16:52:00,
2013-06-24 11:58:00,89.1,71.9,30.12,SE,124,0.0,5.0,57,0.00,,---,0.00,VWS V14.01,2013-06-24 16:58:00,
2013-06-24 12:03:00,89.5,72.3,30.12,SSW,200,0.0,7.0,57,0.00,,---,0.00,VWS V14.01,2013-06-24 17:03:00,
2013-06-24 12:08:00,89.7,72.4,30.12,SW,219,2.0,10.0,57,0.00,,---,0.00,VWS V14.01,2013-06-24 17:08:00,
2013-06-24 12:13:00,89.9,69.9,30.12,SSW,198,1.0,10.0,52,0.00,,---,0.00,VWS V14.01,2013-06-24 17:13:00,
2013-06-24 12:18:00,90.0,71.1,30.12,ESE,109,4.0,10.0,54,0.00,,---,0.00,VWS V14.01,2013-06-24 17:18:00,
2013-06-24 12:23:00,89.9,69.9,30.12,SW,215,2.0,10.0,52,0.00,,---,0.00,VWS V14.01,2013-06-24 17:23:00,
2013-06-24 12:29:00,90.0,70.6,30.12,SSW,203,4.0,7.0,53,0.00,,---,0.00,VWS V14.01,2013-06-24 17:29:00,
2013-06-24 12:34:00,90.2,71.3,30.12,SSW,207,0.0,9.0,54,0.00,,---,0.00,VWS V14.01,2013-06-24 17:34:00,
2013-06-24 12:39:00,90.6,73.8,30.12,South,191,0.0,9.0,58,0.00,,---,0.00,VWS V14.01,2013-06-24 17:39:00,
2013-06-24 12:44:00,90.6,73.3,30.11,South,177,0.0,9.0,57,0.00,,---,0.00,VWS V14.01,2013-06-24 17:44:00,
2013-06-24 12:49:00,90.4,73.6,30.11,SSW,198,3.0,9.0,58,0.00,,---,0.00,VWS V14.01,2013-06-24 17:49:00,
2013-06-24 12:54:00,90.1,73.3,30.11,SSW,196,3.0,9.0,58,0.00,,---,0.00,VWS V14.01,2013-06-24 17:54:00,
2013-06-24 12:59:00,90.2,74.9,30.11,SW,224,2.0,4.0,61,0.00,,---,0.00,VWS V14.01,2013-06-24 17:59:00,
2013-06-24 13:04:00,90.6,74.8,30.11,SSE,159,5.0,6.0,60,0.00,,---,0.00,VWS V14.01,2013-06-24 18:04:00,
2013-06-24 13:10:00,90.2,75.4,30.11,ESE,109,0.0,7.0,62,0.00,,---,0.00,VWS V14.01,2013-06-24 18:10:00,
2013-06-24 13:15:00,90.1,72.8,30.11,SSW,210,0.0,8.0,57,0.00,,---,0.00,VWS V14.01,2013-06-24 18:15:00,
2013-06-24 13:20:00,90.6,74.8,30.11,South,174,6.0,9.0,60,0.00,,---,0.00,VWS V14.01,2013-06-24 18:20:00,
2013-06-24 13:25:00,90.4,74.1,30.11,SW,227,3.0,9.0,59,0.00,,---,0.00,VWS V14.01,2013-06-24 18:25:00,
2013-06-24 13:30:00,90.6,73.8,30.11,SSE,158,1.0,9.0,58,0.00,,---,0.00,VWS V14.01,2013-06-24 18:30:00,
2013-06-24 13:36:00,90.7,75.9,30.10,SE,135,4.0,9.0,62,0.00,,---,0.00,VWS V14.01,2013-06-24 18:36:00,
2013-06-24 13:41:00,90.7,73.4,30.10,South,183,0.0,9.0,57,0.00,,---,0.00,VWS V14.01,2013-06-24 18:41:00,
2013-06-24 13:46:00,90.6,74.3,30.10,SSW,202,2.0,9.0,59,0.00,,---,0.00,VWS V14.01,2013-06-24 18:46:00,
2013-06-24 13:51:00,90.8,74.5,30.10,South,170,5.0,9.0,59,0.00,,---,0.00,VWS V14.01,2013-06-24 18:51:00,
2013-06-24 13:56:00,90.6,71.7,30.09,SSW,207,0.0,9.0,54,0.00,,---,0.00,VWS V14.01,2013-06-24 18:56:00,
2013-06-24 14:01:00,91.2,73.8,30.10,ESE,105,1.0,8.0,57,0.00,,---,0.00,VWS V14.01,2013-06-24 19:01:00,
2013-06-24 14:06:00,90.8,72.9,30.09,South,179,4.0,13.0,56,0.00,,---,0.00,VWS V14.01,2013-06-24 19:06:00,
2013-06-24 14:11:00,90.6,75.3,30.09,ESE,106,6.0,13.0,61,0.00,,---,0.00,VWS V14.01,2013-06-24 19:11:00,
2013-06-24 14:16:00,90.9,75.6,30.10,East,99,9.0,13.0,61,0.00,,---,0.00,VWS V14.01,2013-06-24 19:16:00,
2013-06-24 14:21:00,90.8,75.5,30.09,SSE,162,2.0,13.0,61,0.00,,---,0.00,VWS V14.01,2013-06-24 19:21:00,
2013-06-24 14:26:00,91.0,74.2,30.09,South,175,0.0,13.0,58,0.00,,---,0.00,VWS V14.01,2013-06-24 19:26:00,
2013-06-24 14:31:00,91.0,74.7,30.09,South,171,0.0,8.0,59,0.00,,---,0.00,VWS V14.01,2013-06-24 19:31:00,
2013-06-24 14:36:00,91.2,76.4,30.09,ESE,114,5.0,12.0,62,0.00,,---,0.00,VWS V14.01,2013-06-24 19:36:00,
2013-06-24 14:41:00,90.6,73.3,30.09,SSE,152,6.0,12.0,57,0.00,,---,0.00,VWS V14.01,2013-06-24 19:41:00,
2013-06-24 14:46:00,90.2,73.4,30.09,SE,142,1.0,12.0,58,0.00,,---,0.00,VWS V14.01,2013-06-24 19:46:00,
2013-06-24 14:51:00,90.4,75.1,30.09,SSE,157,7.0,12.0,61,0.00,,---,0.00,VWS V14.01,2013-06-24 19:51:00,
2013-06-24 14:56:00,90.4,76.1,30.09,SSE,160,0.0,12.0,63,0.00,,---,0.00,VWS V14.01,2013-06-24 19:56:00,
2013-06-24 15:01:00,90.5,75.7,30.09,South,186,0.0,8.0,62,0.00,,---,0.00,VWS V14.01,2013-06-24 20:01:00,
2013-06-24 15:06:00,90.9,74.6,30.08,SE,141,5.0,8.0,59,0.00,,---,0.00,VWS V14.01,2013-06-24 20:06:00,
2013-06-24 15:11:00,90.8,75.5,30.08,ESE,109,0.0,9.0,61,0.00,,---,0.00,VWS V14.01,2013-06-24 20:11:00,
2013-06-24 15:16:00,90.8,75.5,30.08,South,169,1.0,9.0,61,0.00,,---,0.00,VWS V14.01,2013-06-24 20:16:00,
2013-06-24 15:22:00,90.6,74.8,30.08,ESE,107,5.0,9.0,60,0.00,,---,0.00,VWS V14.01,2013-06-24 20:22:00,
2013-06-24 15:27:00,90.4,73.1,30.08,South,183,2.0,4.0,57,0.00,,---,0.00,VWS V14.01,2013-06-24 20:27:00,
2013-06-24 15:31:00,90.1,72.3,30.08,ENE,69,2.0,6.0,56,0.00,,---,0.00,VWS V14.01,2013-06-24 20:31:00,
2013-06-24 15:37:00,90.2,73.4,30.08,SSE,161,1.0,8.0,58,0.00,,---,0.00,VWS V14.01,2013-06-24 20:37:00,
2013-06-24 15:42:00,90.4,73.6,30.08,South,173,1.0,8.0,58,0.00,,---,0.00,VWS V14.01,2013-06-24 20:42:00,
2013-06-24 15:47:00,90.4,73.1,30.08,South,186,0.0,8.0,57,0.00,,---,0.00,VWS V14.01,2013-06-24 20:47:00,
2013-06-24 15:52:00,90.6,74.8,30.08,South,185,3.0,8.0,60,0.00,,---,0.00,VWS V14.01,2013-06-24 20:52:00,
2013-06-24 15:57:00,90.6,73.3,30.08,SSW,207,3.0,4.0,57,0.00,,---,0.00,VWS V14.01,2013-06-24 20:57:00,
2013-06-24 16:02:00,90.7,74.9,30.07,SSW,209,8.0,8.0,60,0.00,,---,0.00,VWS V14.01,2013-06-24 21:02:00,
2013-06-24 16:07:00,90.8,74.5,30.07,SE,136,0.0,11.0,59,0.00,,---,0.00,VWS V14.01,2013-06-24 21:07:00,
2013-06-24 16:12:00,90.8,74.0,30.07,South,184,1.0,11.0,58,0.00,,---,0.00,VWS V14.01,2013-06-24 21:12:00,
2013-06-24 16:17:00,90.9,74.6,30.07,SE,144,4.0,11.0,59,0.00,,---,0.00,VWS V14.01,2013-06-24 21:17:00,
2013-06-24 16:22:00,90.6,75.8,30.07,East,101,6.0,11.0,62,0.00,,---,0.00,VWS V14.01,2013-06-24 21:22:00,
2013-06-24 16:27:00,89.8,75.1,30.07,ENE,63,4.0,6.0,62,0.00,,---,0.00,VWS V14.01,2013-06-24 21:27:00,
2013-06-24 16:32:00,89.5,75.2,30.07,SSE,149,2.0,9.0,63,0.00,,---,0.00,VWS V14.01,2013-06-24 21:32:00,
2013-06-24 16:37:00,89.8,76.5,30.06,ESE,119,4.0,9.0,65,0.00,,---,0.00,VWS V14.01,2013-06-24 21:37:00,
2013-06-24 16:42:00,90.1,75.8,30.07,SE,143,2.0,9.0,63,0.00,,---,0.00,VWS V14.01,2013-06-24 21:42:00,
2013-06-24 16:47:00,89.9,76.1,30.07,East,90,0.0,9.0,64,0.00,,---,0.00,VWS V14.01,2013-06-24 21:47:00,
2013-06-24 16:52:00,89.5,75.2,30.06,ESE,114,5.0,9.0,63,0.00,,---,0.00,VWS V14.01,2013-06-24 21:52:00,
2013-06-24 16:57:00,89.3,75.5,30.06,SSE,152,1.0,5.0,64,0.00,,---,0.00,VWS V14.01,2013-06-24 21:57:00,
2013-06-24 17:02:00,89.3,76.0,30.05,SSE,157,4.0,7.0,65,0.00,,---,0.00,VWS V14.01,2013-06-24 22:02:00,
2013-06-24 17:07:00,89.5,75.2,30.06,SSE,161,2.0,10.0,63,0.00,,---,0.00,VWS V14.01,2013-06-24 22:07:00,
2013-06-24 17:13:00,89.5,75.7,30.06,South,185,0.0,10.0,64,0.00,,---,0.00,VWS V14.01,2013-06-24 22:13:00,
2013-06-24 17:18:00,89.6,75.8,30.05,SE,142,1.0,10.0,64,0.00,,---,0.00,VWS V14.01,2013-06-24 22:18:00,
2013-06-24 17:23:00,89.2,75.4,30.05,SE,138,2.0,10.0,64,0.00,,---,0.00,VWS V14.01,2013-06-24 22:23:00,
2013-06-24 17:28:00,88.9,75.6,30.05,ESE,119,1.0,4.0,65,0.00,,---,0.00,VWS V14.01,2013-06-24 22:28:00,
2013-06-24 17:33:00,88.9,74.7,30.04,South,185,3.0,8.0,63,0.00,,---,0.00,VWS V14.01,2013-06-24 22:33:00,
2013-06-24 17:39:00,89.2,75.4,30.04,ESE,118,7.0,9.0,64,0.00,,---,0.00,VWS V14.01,2013-06-24 22:39:00,
2013-06-24 17:44:00,88.9,75.6,30.04,SE,146,0.0,9.0,65,0.00,,---,0.00,VWS V14.01,2013-06-24 22:44:00,
2013-06-24 17:49:00,88.7,75.0,30.05,South,188,4.0,9.0,64,0.00,,---,0.00,VWS V14.01,2013-06-24 22:49:00,
2013-06-24 17:55:00,88.6,74.4,30.05,ESE,123,4.0,9.0,63,0.00,,---,0.00,VWS V14.01,2013-06-24 22:55:00,
2013-06-24 18:00:00,88.7,75.0,30.05,South,183,4.0,5.0,64,0.00,,---,0.00,VWS V14.01,2013-06-24 23:00:00,
2013-06-24 18:05:00,88.5,76.6,30.05,SSE,152,0.0,8.0,68,0.00,,---,0.00,VWS V14.01,2013-06-24 23:05:00,
2013-06-24 18:10:00,88.3,75.1,30.05,SSE,165,4.0,8.0,65,0.00,,---,0.00,VWS V14.01,2013-06-24 23:10:00,
2013-06-24 18:15:00,88.2,74.5,30.05,South,183,0.0,8.0,64,0.00,,---,0.00,VWS V14.01,2013-06-24 23:15:00,
2013-06-24 18:20:00,88.0,74.3,30.05,South,175,1.0,8.0,64,0.00,,---,0.00,VWS V14.01,2013-06-24 23:20:00,
2013-06-24 18:25:00,87.8,74.1,30.05,South,176,0.0,8.0,64,0.00,,---,0.00,VWS V14.01,2013-06-24 23:25:00,
2013-06-24 18:30:00,87.7,74.0,30.05,South,178,0.0,2.0,64,0.00,,---,0.00,VWS V14.01,2013-06-24 23:30:00,
2013-06-24 18:35:00,87.7,74.0,30.05,South,178,0.0,4.0,64,0.00,,---,0.00,VWS V14.01,2013-06-24 23:35:00,
2013-06-24 18:40:00,87.7,73.6,30.05,SSW,210,0.0,6.0,63,0.00,,---,0.00,VWS V14.01,2013-06-24 23:40:00,
2013-06-24 18:45:00,87.8,73.6,30.05,SSW,192,3.0,6.0,63,0.00,,---,0.00,VWS V14.01,2013-06-24 23:45:00,
2013-06-24 18:51:00,87.7,74.0,30.05,SSW,192,4.0,7.0,64,0.00,,---,0.00,VWS V14.01,2013-06-24 23:51:00,
2013-06-24 18:56:00,87.6,73.5,30.05,South,188,0.0,7.0,63,0.00,,---,0.00,VWS V14.01,2013-06-24 23:56:00,
2013-06-24 19:01:00,87.5,73.8,30.05,South,184,2.0,3.0,64,0.00,,---,0.00,VWS V14.01,2013-06-25 00:01:00,
2013-06-24 19:06:00,87.4,74.2,30.05,SSE,157,0.0,6.0,65,0.00,,---,0.00,VWS V14.01,2013-06-25 00:06:00,
2013-06-24 19:11:00,87.5,74.8,30.05,SSE,157,0.0,6.0,66,0.00,,---,0.00,VWS V14.01,2013-06-25 00:11:00,
2013-06-24 19:16:00,87.5,74.8,30.05,SSE,158,0.0,6.0,66,0.00,,---,0.00,VWS V14.01,2013-06-25 00:16:00,
2013-06-24 19:21:00,87.4,75.1,30.05,SSE,159,0.0,6.0,67,0.00,,---,0.00,VWS V14.01,2013-06-25 00:21:00,
2013-06-24 19:26:00,87.4,75.1,30.05,SSE,159,0.0,6.0,67,0.00,,---,0.00,VWS V14.01,2013-06-25 00:26:00,
2013-06-24 19:31:00,87.2,74.9,30.05,SSE,159,0.0,4.0,67,0.00,,---,0.00,VWS V14.01,2013-06-25 00:31:00,
2013-06-24 19:36:00,87.0,75.2,30.05,SSE,159,0.0,4.0,68,0.00,,---,0.00,VWS V14.01,2013-06-25 00:36:00,
2013-06-24 19:41:00,86.8,75.0,30.05,SSE,158,2.0,5.0,68,0.00,,---,0.00,VWS V14.01,2013-06-25 00:41:00,
2013-06-24 19:46:00,86.6,74.8,30.05,SSE,158,0.0,5.0,68,0.00,,---,0.00,VWS V14.01,2013-06-25 00:46:00,
2013-06-24 19:51:00,86.5,74.7,30.05,SSE,158,0.0,5.0,68,0.00,,---,0.00,VWS V14.01,2013-06-25 00:51:00,
2013-06-24 19:56:00,86.3,74.5,30.05,SSE,158,0.0,5.0,68,0.00,,---,0.00,VWS V14.01,2013-06-25 00:56:00,
2013-06-24 20:01:00,86.2,74.8,30.05,SSE,159,0.0,1.0,69,0.00,,---,0.00,VWS V14.01,2013-06-25 01:01:00,
2013-06-24 20:06:00,86.1,74.8,30.05,SSE,158,0.0,4.0,69,0.00,,---,0.00,VWS V14.01,2013-06-25 01:06:00,
2013-06-24 20:11:00,86.0,74.7,30.06,SSE,158,0.0,4.0,69,0.00,,---,0.00,VWS V14.01,2013-06-25 01:11:00,
2013-06-24 20:17:00,85.8,74.9,30.06,SSE,159,0.0,6.0,70,0.00,,---,0.00,VWS V14.01,2013-06-25 01:17:00,
2013-06-24 20:22:00,85.7,75.2,30.05,ESE,121,0.0,6.0,71,0.00,,---,0.00,VWS V14.01,2013-06-25 01:22:00,
2013-06-24 20:27:00,85.5,75.4,30.06,ESE,122,0.0,0.0,72,0.00,,---,0.00,VWS V14.01,2013-06-25 01:27:00,
2013-06-24 20:32:00,85.2,75.6,30.06,SE,124,0.0,5.0,73,0.00,,---,0.00,VWS V14.01,2013-06-25 01:32:00,
2013-06-24 20:37:00,85.2,76.0,30.06,SE,124,0.0,5.0,74,0.00,,---,0.00,VWS V14.01,2013-06-25 01:37:00,
2013-06-24 20:43:00,85.1,75.9,30.07,SE,124,0.0,5.0,74,0.00,,---,0.00,VWS V14.01,2013-06-25 01:43:00,
2013-06-24 20:48:00,85.0,76.2,30.06,SE,125,0.0,5.0,75,0.00,,---,0.00,VWS V14.01,2013-06-25 01:48:00,
2013-06-24 20:53:00,84.9,76.5,30.06,SE,131,0.0,5.0,76,0.00,,---,0.00,VWS V14.01,2013-06-25 01:53:00,
2013-06-24 20:58:00,84.8,76.4,30.07,SE,131,0.0,0.0,76,0.00,,---,0.00,VWS V14.01,2013-06-25 01:58:00,
2013-06-24 21:03:00,84.7,76.7,30.07,SE,131,1.0,1.0,77,0.00,,---,0.00,VWS V14.01,2013-06-25 02:03:00,
2013-06-24 21:08:00,84.5,76.5,30.07,SE,131,0.0,1.0,77,0.00,,---,0.00,VWS V14.01,2013-06-25 02:08:00,
2013-06-24 21:13:00,84.4,76.8,30.07,SE,132,0.0,2.0,78,0.00,,---,0.00,VWS V14.01,2013-06-25 02:13:00,
2013-06-24 21:18:00,84.3,77.1,30.07,SE,131,0.0,4.0,79,0.00,,---,0.00,VWS V14.01,2013-06-25 02:18:00,
2013-06-24 21:23:00,84.2,77.0,30.07,SE,132,0.0,4.0,79,0.00,,---,0.00,VWS V14.01,2013-06-25 02:23:00,
2013-06-24 21:28:00,83.9,77.1,30.07,SE,132,0.0,1.0,80,0.00,,---,0.00,VWS V14.01,2013-06-25 02:28:00,
2013-06-24 21:33:00,83.8,77.0,30.07,SE,132,0.0,5.0,80,0.00,,---,0.00,VWS V14.01,2013-06-25 02:33:00,
2013-06-24 21:38:00,83.6,77.2,30.07,SE,132,0.0,5.0,81,0.00,,---,0.00,VWS V14.01,2013-06-25 02:38:00,
2013-06-24 21:43:00,83.5,76.7,30.07,SE,132,0.0,5.0,80,0.00,,---,0.00,VWS V14.01,2013-06-25 02:43:00,
2013-06-24 21:48:00,83.4,76.6,30.07,SE,134,0.0,5.0,80,0.00,,---,0.00,VWS V14.01,2013-06-25 02:48:00,
2013-06-24 21:53:00,83.3,76.5,30.08,SE,133,0.0,5.0,80,0.00,,---,0.00,VWS V14.01,2013-06-25 02:53:00,
2013-06-24 21:58:00,83.2,76.4,30.08,SE,134,0.0,2.0,80,0.00,,---,0.00,VWS V14.01,2013-06-25 02:58:00,
2013-06-24 22:03:00,83.2,76.4,30.07,SE,134,0.0,2.0,80,0.00,,---,0.00,VWS V14.01,2013-06-25 03:03:00,
2013-06-24 22:08:00,83.1,76.3,30.08,SE,134,0.0,5.0,80,0.00,,---,0.00,VWS V14.01,2013-06-25 03:08:00,
2013-06-24 22:13:00,83.1,76.3,30.08,SE,135,0.0,5.0,80,0.00,,---,0.00,VWS V14.01,2013-06-25 03:13:00,
2013-06-24 22:18:00,83.1,76.7,30.08,SE,135,0.0,5.0,81,0.00,,---,0.00,VWS V14.01,2013-06-25 03:18:00,
2013-06-24 22:23:00,83.2,77.1,30.08,ESE,119,0.0,5.0,82,0.00,,---,0.00,VWS V14.01,2013-06-25 03:23:00,
2013-06-24 22:28:00,83.2,77.1,30.08,ESE,119,0.0,1.0,82,0.00,,---,0.00,VWS V14.01,2013-06-25 03:28:00,
2013-06-24 22:33:00,83.2,77.5,30.08,SE,124,0.0,2.0,83,0.00,,---,0.00,VWS V14.01,2013-06-25 03:33:00,
2013-06-24 22:39:00,83.2,77.5,30.08,SE,124,0.0,4.0,83,0.00,,---,0.00,VWS V14.01,2013-06-25 03:39:00,
2013-06-24 22:44:00,83.1,77.4,30.08,SE,125,0.0,4.0,83,0.00,,---,0.00,VWS V14.01,2013-06-25 03:44:00,
2013-06-24 22:49:00,83.0,77.3,30.08,SE,124,0.0,4.0,83,0.00,,---,0.00,VWS V14.01,2013-06-25 03:49:00,
2013-06-24 22:54:00,82.9,76.8,30.08,SE,125,0.0,5.0,82,0.00,,---,0.00,VWS V14.01,2013-06-25 03:54:00,
2013-06-24 22:59:00,82.8,76.8,30.09,ESE,119,0.0,5.0,82,0.00,,---,0.00,VWS V14.01,2013-06-25 03:59:00,
2013-06-24 23:01:00,82.8,76.8,30.09,ESE,119,0.0,5.0,82,0.00,,---,0.00,VWS V14.01,2013-06-25 04:01:00,
2013-06-24 23:06:00,82.8,76.8,30.09,ESE,119,0.0,5.0,82,0.00,,---,0.00,VWS V14.01,2013-06-25 04:06:00,
2013-06-24 23:11:00,82.7,76.7,30.09,ESE,119,0.0,5.0,82,0.00,,---,0.00,VWS V14.01,2013-06-25 04:11:00,
2013-06-24 23:16:00,82.5,76.4,30.09,ESE,119,0.0,5.0,82,0.00,,---,0.00,VWS V14.01,2013-06-25 04:16:00,
2013-06-24 23:21:00,82.4,76.7,30.09,ESE,119,0.0,5.0,83,0.00,,---,0.00,VWS V14.01,2013-06-25 04:21:00,
2013-06-24 23:26:00,82.4,76.7,30.09,ESE,119,0.0,5.0,83,0.00,,---,0.00,VWS V14.01,2013-06-25 04:26:00,
2013-06-24 23:31:00,82.4,76.7,30.09,ESE,120,0.0,0.0,83,0.00,,---,0.00,VWS V14.01,2013-06-25 04:31:00,
2013-06-24 23:36:00,82.4,76.7,30.09,ESE,119,0.0,4.0,83,0.00,,---,0.00,VWS V14.01,2013-06-25 04:36:00,
2013-06-24 23:41:00,82.4,77.1,30.09,ESE,119,0.0,4.0,84,0.00,,---,0.00,VWS V14.01,2013-06-25 04:41:00,
2013-06-24 23:46:00,82.4,77.1,30.09,ESE,120,0.0,4.0,84,0.00,,---,0.00,VWS V14.01,2013-06-25 04:46:00,
2013-06-24 23:51:00,82.4,77.1,30.09,ESE,120,0.0,4.0,84,0.00,,---,0.00,VWS V14.01,2013-06-25 04:51:00,
2013-06-24 23:56:00,82.4,77.1,30.09,ESE,119,0.0,4.0,84,0.00,,---,0.00,VWS V14.01,2013-06-25 04:56:00,